Location: ???????
(55.3754°N, 39.3545°E)
Time: 10:50:57
(UTC+00:00)

NOSS 3-4 (A) - Pass Details

Date: 14 April 2026
Orbit: 769 x 1442 km, 63.4° (Epoch: 10 January)

Event Time Altitude Azimuth Distance (km) Brightness Sun altitude
Rises 18:04:55 0° 197° (SSW) 3,237 6.0 -13.1°
Reaches altitude 10° 18:07:22 10° 189° (S) 2,337 5.2 -13.4°
Maximum altitude 18:12:13 38° 123° (ESE) 1,254 3.6 -13.9°
Drops below altitude 10° 18:17:34 10° 57° (ENE) 2,587 5.6 -14.5°
Sets 18:20:25 0° 50° (NE) 3,630 6.4 -14.7°
